COSMOS 714

Satellite information

Favourite Embed

Satellite Type and Status

PAYLOADIN ORBIT

Key statistics

Satellite COSMOS 714 at a glance.

Uptime

18552

Days in orbit

Revolutions

≈ 12.5

Per day

Orbit

LEO

Low Earth Orbit

Inclination

74.0

Latest

Satellite identification and parameters

Extended collection of information and parameters for COSMOS 714.

Object identification

Identified? True

Debris? False

Object name: COSMOS 714

International designator: 1975-016D

Object number (NORAD): 7681

Object ID (CCSDS): 7681

Country: COMMONWEALTH OF INDEPENDENT STATES (CIS)

Current information (Y/N): Y

RCS size: MEDIUM

Orbital parameters

Period: 115.265 minutes

Inclination: 74.0013 deg

SMA: 7845.561 km

Apoapsis: 1490.162 km

Periapsis: 1444.689 km

RAAN: 204.7486 deg

Eccentricy: 0.00289799

Argument of periapsis: 66.9815 deg

Mean anomaly: 49.8526 deg

Mean motion: 12.4930013 rev/day

Mean motion (dot): -0.00000015 rev/day2

B* drag term: 0.000003730878 1/REarth

Two-line elements (TLE)

Creation date: Dec. 12, 2025, 10:14 a.m.

Reference frame: TEME

Reference center: EARTH

Epoch: Dec. 12, 2025, 6:58 a.m. UTC

TLE line 0: 0 COSMOS 714

TLE line 1: 1 07681U 75016D 25346.29038288 -.00000015 00000-0 37309-5 0 9995

TLE line 2: 2 07681 74.0013 204.7486 0028980 66.9815 49.8526 12.49300130316188

Live tracking on map

Real-time ground track for satellite COSMOS 714.

In-orbit conjunctions

A list of the most updated potential collisions computed for object COSMOS 714.

Target Orbit TCA Probability of collision Miss distance Type
BREEZE-KM R/B LEO 2025-12-08 22:56:03 0.0007930227 100.0 (m) ROCKET BODY

Associated space launch

Military communications satellites

COSMOS 714 was lifted into orbit during the mission ‘Kosmos-3M | Strela-1M 81-88’, on board a Kosmos-3M space rocket.

The launch took place on Feb. 28, 1975, 2:01 p.m. from 132/2.

For more information about the launch, click the button.

Launch to space Kosmos-3M | Strela-1M 81-88
Kosmos-3M | Strela-1M 81-88

Agency: N/A

Status: Launch Successful

Launch date: Feb. 28, 1975, 2:01 p.m. UTC

Rocket: Kosmos-3M

Launch pad: 132/2

Location: Plesetsk Cosmodrome, Russian Federation

...

Latest news about this satellite

There are no fresh news available about this satellite. Check back as we update our databases every day.


Newsletter sign-up

Weekly statistics, charts and insights to help you stay on top of the space industry.